Regional Weather Roundup
Issued by NWS Northern Indiana

Home | Current Version | Previous Version | Text Only | Print | Product List | Glossary On
Versions: 1 2 3 4 5 6 7 8 9 10 11 12 13 14 15 16 17 18 19 20 21 22 23 24 25 26 27 28 29 30 31 32 33 34 35 36 37 38 39 40 41 42 43 44 45 46 47 48 49 50
000
ASUS43 KIWX 300910
RWRIWX

KIWX WEATHER ROUNDUP
NATIONAL WEATHER SERVICE NORTHERN INDIANA
500 AM EDT MON MAY 30 2016

NOTE: "FAIR" INDICATES FEW OR NO CLOUDS BELOW 12,000 FEET WITH NO
SIGNIFICANT WEATHER AND/OR OBSTRUCTIONS TO VISIBILITY.

* THESE STATIONS ARE NOT UNDER NWS QUALITY CONTROL. THEY ALSO MAY NOT
  REPORT WEATHER SUCH AS PRECIPITATION OR FOG.

INZ001>027-301000-
NORTHERN INDIANA

CITY           SKY/WX    TMP DP  RH WIND       PRES   REMARKS
GARY*          CLEAR     59  59 100 CALM      30.02R
VALPARAISO     PTCLDY    63  56  78 CALM      30.02S
MICHIGAN CITY* PTCLDY    59  59 100 CALM      30.02R
LAPORTE*       PTCLDY    62  60  90 W5        30.02R
KNOX*          PTCLDY    59  52  77 SW3       30.02R
SOUTH BEND     CLEAR     59  56  89 SW3       30.02S
GOSHEN         CLEAR     59  55  87 CALM      30.01S
MONTICELLO*    CLEAR     62  54  75 CALM      30.03R
LOGANSPORT*    CLEAR     63  54  72 W5        30.04R
ROCHESTER*     CLEAR     64  57  77 CALM      30.04R
WARSAW*        PTCLDY    59  59 100 CALM      30.03R
ANGOLA*          N/A     57  57 100 CALM      30.01S
FORT WAYNE     PTCLDY    60  55  83 SW5       30.03R
HUNTINGTON*    CLEAR    N/A N/A N/A CALM      30.03R
PERU/GRISSOM   PTCLDY    59  56  88 SW5       30.03R
MARION*        CLEAR     60  56  85 CALM      30.04S

$$
INZ028>050-301000-
CENTRAL INDIANA

CITY           SKY/WX    TMP DP  RH WIND       PRES   REMARKS
LAFAYETTE      CLOUDY    59  57  93 CALM      30.04R
KOKOMO*        CLEAR     61  54  77 SW3       30.04R
MUNCIE*        CLEAR     63  55  75 CALM      30.04S
INDIANAPOLIS   PTCLDY    61  57  87 W3        30.03R

$$
MIZ043>046-050>051-056>058-064>065-071>073-077>080-301000-
SOUTHWEST LOWER MICHIGAN

CITY           SKY/WX    TMP DP  RH WIND       PRES   REMARKS
BATTLE CREEK   PTCLDY    60  56  86 SW6       30.00S
BENTON HARBOR  CLEAR     60  55  83 CALM      29.99S
COLDWATER*     CLEAR     59  56  88 SW5       30.01R
HILLSDALE*     CLEAR     62  54  74 W3        30.01S
HOLLAND        CLEAR     62  55  77 CALM      29.99R
GRAND RAPIDS   CLEAR     62  56  80 W6        29.99R
KALAMAZOO      CLEAR     62  55  77 CALM      30.00S
STURGIS*       PTCLDY    59  56  92 CALM      30.01R
THREE RIVERS*  FAIR      60  57  88 CALM      30.01S

$$
OHZ001>008-015>018-024>025-301000-
NORTHWEST OHIO

CITY           SKY/WX    TMP DP  RH WIND       PRES   REMARKS
WAUSEON*         N/A     61  61 100 CALM      30.01R
DEFIANCE       CLEAR     62  55  77 CALM      30.01S
FINDLAY        CLOUDY    61  55  81 CALM      30.00S
TOLEDO EXPRESS PTCLDY    61  56  83 SW3       29.99S
TOLEDO METCALF MOCLDY    62  54  74 CALM      30.00S
LIMA           MOCLDY    63  57  81 CALM      30.02R

$$
AND FOR LAKE MICHIGAN COASTAL AND OPEN LAKE BUOY OBSERVATIONS

STATION/POSITION TEMP    WIND        PRES    VSBY  WAVE
                 AIR SEA DIR/SP/G                  HT/PER
                 (F)     (DEG/KT/KT) (MB)    (MI)  (FT/S)
CALUMET HARBOR    68     240/  3/  5 1015.3F
MICHIGAN CITY     67     190/  8/  8   N/A
BURNS HARBOR      67     200/  6/  8 1016.3S
SAINT JOSEPH      66     180/  6/ 10 1016.3S
SOUTH LAKE BUOY   56 51  250/  6/  8 1014.8R         0
4 MI NW BRIDGMAN  64 62  220/  6/  8   N/A           1
MICHIGAN CITY     62 58  210/  6/  6   N/A           0

$$
&&




USA.gov is the U.S. government's official web portal to all federal, state and local government web resources and services.